Home > Weather > Salisbury > Past weeks

Flag for United Kingdom Weather for the Past 2 Weeks in Salisbury, England, United Kingdom

Now
48 °F

Rain. Partly cloudy.


Feels Like: 39 °F
Forecast: N/A
Wind: 35 mph from South

Location: Boscombe Down

Current Time: Feb 6, 2016 at 8:51:21 PM

Latest Report: Feb 6, 2016 at 7:50 PM


Visibility: 3 mi

Pressure: 29.09 "Hg

Humidity: 87%

Dew point: 45 °F

Location of SalisburyLocation

Historic Weather in Salisbury — Graph

°F

Salisbury Temperature Yesterday

Maximum temperature yesterday: 50 °F (at 12:50 PM)
Minimum temperature yesterday: 46 °F (at 5:50 AM)
Average temperature yesterday: 48 °F

High & Low Weather Summary for the Past Weeks

 TemperatureHumidityPressure
High55 °F (Jan 24, 11:50 AM)100% (Jan 23, 2:50 AM)30.42 "Hg (Jan 23, 2:50 AM)
Low32 °F (Jan 28, 5:50 AM)57% (Feb 2, 2:50 PM)29.12 "Hg (Feb 6, 6:50 PM)
Average47 °F89%30.04 "Hg
* Reported Jan 22 6:50 PM — Feb 6 6:50 PM, Salisbury, Weather by CustomWeather, © 2016

Note: Actual official high and low records may vary slightly from our data, if they occured in-between our weather recording intervals... More about our weather records

Advertising

Salisbury Weather History for the Previous 24 Hours

 ConditionsComfort  
Time TempWeatherWind HumidityBarometerVisibility
6:50 PM
Sat, Feb 6
48 °FRain. Partly cloudy.37 mph94%29.12 "Hg6 mi
5:50 PM48 °FRain. Partly cloudy.35 mph94%29.15 "Hg2 mi
4:50 PM48 °FHeavy rain. Cloudy.28 mph94%29.21 "Hg2 mi
3:50 PM50 °FRain. Cloudy.31 mph88%29.24 "Hg3 mi
2:50 PM48 °FRain. Mostly cloudy.30 mph94%29.27 "Hg3 mi
1:50 PM48 °FRain. Mostly cloudy.31 mph100%29.30 "Hg3 mi
12:50 PM50 °FMostly cloudy.35 mph82%29.36 "HgN/A
11:50 AM50 °FOvercast.31 mph88%29.39 "HgN/A
10:50 AM50 °FLight rain. Mostly cloudy.32 mph88%29.42 "HgN/A
9:50 AM50 °FLight rain. Mostly cloudy.28 mph94%29.47 "HgN/A
9:02 AM50 °FRain. Mostly cloudy.28 mph94%29.50 "Hg2 mi
8:50 AM48 °FRain. Mostly cloudy.25 mph100%29.50 "Hg3 mi
7:50 AM48 °FLight rain. Mostly cloudy.23 mph100%29.53 "Hg4 mi
6:50 AM48 °FRain. Passing clouds.22 mph100%29.56 "Hg3 mi
5:50 AM48 °FRain. Passing clouds.20 mph100%29.59 "Hg3 mi
4:50 AM48 °FLight rain. Partly cloudy.18 mph100%29.62 "Hg3 mi
3:50 AM48 °FPassing clouds.18 mph100%29.65 "Hg2 mi
2:50 AM48 °FLight rain. Passing clouds.18 mph94%29.68 "Hg4 mi
1:50 AM48 °FPassing clouds.17 mph94%29.71 "Hg3 mi
12:50 AM48 °FFog.17 mph94%29.74 "Hg4 mi
11:50 PM
Fri, Feb 5
48 °FPartly cloudy.16 mph94%29.77 "Hg6 mi
10:50 PM48 °FRain. Passing clouds.21 mph94%29.77 "Hg2 mi
9:50 PM48 °FPartly cloudy.24 mph94%29.77 "Hg3 mi
8:50 PM48 °FPartly cloudy.22 mph94%29.80 "HgN/A
Weather by CustomWeather, © 2016

See weather overviewHow to use our weather pages